Weather History for KSMQ - July, 2013

Change the Weather History Date:

Tuesday, July 16, 2013

  Actual Average Record
Temperature  
Mean Temperature 81 °F -  
Max Temperature 93 °F 87 °F 98 °F (1983)
Min Temperature 69 °F 62 °F 51 °F (1946)
Cooling Degree Days 16    
Growing Degree Days 31 (Base 50)    
Moisture  
Dew Point 71 °F    
Average Humidity 79    
Maximum Humidity 100    
Minimum Humidity 39    
Precipitation  
Precipitation 0.00 in - - ()
Sea Level Pressure  
Sea Level Pressure 30.16 in    
Wind  
Wind Speed 1 mph (NNW)    
Max Wind Speed 10 mph    
Max Gust Speed 16 mph    
Visibility 6 miles    
Events Fog    
Averages and records for this station are not official NWS values.
T = Trace of Precipitation, MM = Missing Value Source: NWS Daily Summary

Daily Weather History Graph

Daily Weather History Graph

Search for Another Location

Airport or City:

Trip Planner

Search our weather history database for the weather conditions in past years. The results will help you decide how hot, cold, wet, or windy it might be!

Date:

Astronomy

Jul. 16, 2013 Rise Set
Actual Time 5:41 AM EDT 8:27 PM EDT
Civil Twilight 5:09 AM EDT 8:59 PM EDT
Nautical Twilight 4:28 AM EDT 9:39 PM EDT
Astronomical Twilight 3:42 AM EDT 10:25 PM EDT
Moon 2:05 PM EDT (7/16) 12:10 AM EDT (7/16)
Length of Visible Light 15h 50m
Length of Day
14h 45m
First Quarter, 56% of the Moon is Illuminated
Jul 16
First Quarter
Jul 22
Full
Jul 29
Last Quarter
Aug 6
New
Aug 14
First Quarter

Hourly Weather History & Observations

Time (EDT) Temp. Heat Index Dew Point Humidity Pressure Visibility Wind Dir Wind Speed Gust Speed Precip Events Conditions
12:05 AM 75.2 °F - 73.4 °F 94% 30.16 in 1.8 mi Calm Calm - N/A   Partly Cloudy
12:14 AM 75.2 °F - 73.4 °F 94% 30.16 in 3.0 mi Calm Calm - N/A   Partly Cloudy
12:19 AM 75.2 °F - 73.4 °F 94% 30.16 in 1.8 mi Calm Calm - N/A   Partly Cloudy
12:30 AM 75.2 °F - 73.4 °F 94% 30.16 in 3.0 mi Calm Calm - N/A   Partly Cloudy
12:43 AM 75.2 °F - 73.4 °F 94% 30.16 in 1.8 mi Calm Calm - N/A   Partly Cloudy
12:46 AM 75.2 °F - 73.4 °F 94% 30.16 in 0.8 mi Calm Calm - N/A   Mist
12:53 AM 75.0 °F - 73.0 °F 94% 30.16 in 0.8 mi Calm Calm - N/A   Mist
12:56 AM 75.2 °F - 73.4 °F 94% 30.16 in 1.5 mi Calm Calm - N/A   Partly Cloudy
12:58 AM 73.4 °F - 73.4 °F 100% 30.16 in 4.0 mi Calm Calm - N/A   Partly Cloudy
1:53 AM 73.9 °F - 73.0 °F 97% 30.16 in 5.0 mi Calm Calm - N/A   Clear
2:10 AM 73.4 °F - 71.6 °F 94% 30.16 in 1.8 mi Calm Calm - N/A   Clear
2:18 AM 73.4 °F - 71.6 °F 94% 30.16 in 0.2 mi Calm Calm - N/A Fog Fog
2:28 AM 73.4 °F - 71.6 °F 94% 30.16 in 1.0 mi Calm Calm - N/A   Clear
2:32 AM 73.4 °F - 71.6 °F 94% 30.16 in 3.0 mi Calm Calm - N/A   Clear
2:53 AM 73.0 °F - 71.1 °F 93% 30.15 in 8.0 mi Calm Calm - N/A   Clear
3:53 AM 71.1 °F - 70.0 °F 96% 30.15 in 6.0 mi Calm Calm - N/A   Clear
4:53 AM 70.0 °F - 69.1 °F 97% 30.16 in 5.0 mi WNW 3.5 mph - N/A   Clear
5:34 AM 69.8 °F - 68.0 °F 94% 30.17 in 2.5 mi Calm Calm - N/A   Clear
5:43 AM 69.8 °F - 68.0 °F 94% 30.18 in 5.0 mi Calm Calm - N/A   Clear
5:53 AM 69.1 °F - 68.0 °F 96% 30.17 in 8.0 mi NW 3.5 mph - N/A   Clear
6:53 AM 72.0 °F - 69.1 °F 91% 30.19 in 9.0 mi Calm Calm - N/A   Clear
7:53 AM 78.1 °F - 70.0 °F 76% 30.20 in 10.0 mi NNW 3.5 mph - N/A   Clear
8:53 AM 84.0 °F 87.0 °F 68.0 °F 58% 30.20 in 10.0 mi North 5.8 mph - N/A   Clear
9:53 AM 87.1 °F 89.9 °F 66.9 °F 51% 30.19 in 10.0 mi NNW 6.9 mph - N/A   Clear
10:53 AM 89.1 °F 92.1 °F 66.9 °F 48% 30.18 in 10.0 mi NNW 8.1 mph - N/A   Clear
11:53 AM 91.0 °F 93.0 °F 64.9 °F 42% 30.18 in 10.0 mi NW 3.5 mph - N/A   Clear
12:53 PM 91.9 °F 94.1 °F 64.9 °F 41% 30.17 in 10.0 mi NNW 10.4 mph 16.1 mph N/A   Clear
1:53 PM 91.9 °F 93.3 °F 64.0 °F 39% 30.16 in 10.0 mi North 9.2 mph - N/A   Mostly Cloudy
2:53 PM 93.9 °F 97.0 °F 66.0 °F 40% 30.15 in 10.0 mi NNW 8.1 mph - N/A   Scattered Clouds
3:53 PM 91.9 °F 95.9 °F 68.0 °F 45% 30.14 in 10.0 mi Variable 3.5 mph - N/A   Clear
4:53 PM 93.0 °F 96.4 °F 66.9 °F 42% 30.13 in 10.0 mi Variable 3.5 mph - N/A   Partly Cloudy
5:53 PM 93.0 °F 96.4 °F 66.9 °F 42% 30.12 in 10.0 mi North 4.6 mph - N/A   Partly Cloudy
6:53 PM 88.0 °F 94.7 °F 72.0 °F 59% 30.12 in 10.0 mi Calm Calm - N/A   Clear
7:53 PM 84.0 °F 90.2 °F 73.0 °F 69% 30.13 in 10.0 mi Calm Calm - N/A   Clear
8:53 PM 81.0 °F 86.7 °F 75.0 °F 82% 30.14 in 10.0 mi Calm Calm - N/A   Clear
9:53 PM 79.0 °F - 75.0 °F 88% 30.16 in 9.0 mi Calm Calm - N/A   Clear
10:53 PM 77.0 °F - 75.0 °F 94% 30.16 in 6.0 mi Calm Calm - N/A   Clear
11:53 PM 75.9 °F - 73.9 °F 94% 30.16 in 8.0 mi Calm Calm - N/A   Clear